Regional Weather Roundup
Issued by NWS Northern Indiana

Home | Current Version | Previous Version | Graphics & Text | Print | Product List | Glossary On
Versions: 1 2 3 4 5 6 7 8 9 10 11 12 13 14 15 16 17 18 19 20 21 22 23 24 25 26 27 28 29 30 31 32 33 34 35 36 37 38 39 40 41 42 43 44 45 46 47 48 49 50
078
ASUS43 KIWX 261310
RWRIWX

KIWX WEATHER ROUNDUP
NATIONAL WEATHER SERVICE NORTHERN INDIANA
800 AM EST SUN FEB 26 2017

NOTE: "FAIR" INDICATES FEW OR NO CLOUDS BELOW 12,000 FEET WITH NO
SIGNIFICANT WEATHER AND/OR OBSTRUCTIONS TO VISIBILITY.

* THESE STATIONS ARE NOT UNDER NWS QUALITY CONTROL. THEY ALSO MAY NOT
  REPORT WEATHER SUCH AS PRECIPITATION OR FOG.

INZ001>027-261400-
NORTHERN INDIANA

CITY           SKY/WX    TMP DP  RH WIND       PRES   REMARKS
GARY*          CLOUDY    27  19  74 S8        30.05F WCI  18
VALPARAISO     CLOUDY    23  19  85 S8        30.06S WCI  14
MICHIGAN CITY* MOCLDY    23  19  86 S6        30.06F WCI  16
LAPORTE*       PTCLDY    22  18  86 S7        30.07S WCI  13
KNOX*          CLEAR     21   5  49 S7        30.08S WCI  13
SOUTH BEND     CLEAR     20  15  81 S7        30.07S WCI  11
ELKHART*       CLEAR     23  16  74 S6        30.08  WCI  16
GOSHEN         PTCLDY    22  15  75 S8        30.09R WCI  12
MONTICELLO*    CLEAR     23  19  82 S7        30.11S WCI  15
LOGANSPORT*    CLEAR     23  19  86 S7        30.12S WCI  15
ROCHESTER*     CLEAR     27  21  80 S7        30.10S WCI  19
WARSAW*        MOCLDY    21  16  79 S5        30.10R WCI  15
ANGOLA*        CLEAR     21  18  86 SW6       30.07R WCI  14
FORT WAYNE     PTCLDY    23  17  78 SW7       30.12R WCI  15
HUNTINGTON*    CLEAR     22  17  81 S5        30.13R WCI  15
PERU/GRISSOM   CLEAR     22  20  91 S8        30.11R WCI  12
MARION*        CLEAR     20  18  89 S7        30.14S WCI  12

$$
INZ028>050-261400-
CENTRAL INDIANA

CITY           SKY/WX    TMP DP  RH WIND       PRES   REMARKS
LAFAYETTE      CLEAR     21  19  92 S6        30.13R WCI  13
KOKOMO*        CLEAR     21  19  92 S7        30.13S WCI  12
MUNCIE*        CLEAR     23  18  81 SW5       30.14R WCI  17
INDIANAPOLIS   PTCLDY    22  16  78 S6        30.16R WCI  14

$$
MIZ043>046-050>051-056>058-064>065-071>073-077>080-261400-
SOUTHWEST LOWER MICHIGAN

CITY           SKY/WX    TMP DP  RH WIND       PRES   REMARKS
BATTLE CREEK   MOCLDY    23  18  81 S9        30.05R WCI  13
BENTON HARBOR  CLEAR     24  15  68 S9        30.05S WCI  14
COLDWATER*     CLEAR     22  18  81 SW8       30.07R WCI  13
HILLSDALE*     CLEAR     21  18  86 SW5       30.05R WCI  15
HOLLAND        PTCLDY    24  17  74 S8        30.01F WCI  15
GRAND RAPIDS   MOCLDY    22  15  75 S8        30.01S WCI  12
KALAMAZOO      CLOUDY    24  16  71 S13       30.05R WCI  12
STURGIS*       CLOUDY    23  18  82 SW8       30.06S WCI  13
THREE RIVERS*  CLOUDY    23  18  80 S8        30.07R WCI  14

$$
OHZ001>008-015>018-024>025-261400-
NORTHWEST OHIO

CITY           SKY/WX    TMP DP  RH WIND       PRES   REMARKS
WAUSEON*       FAIR      25  19  80 SW8       30.09R WCI  16
DEFIANCE       CLEAR     23  17  78 SW7       30.12R WCI  15
FINDLAY        CLEAR     25  17  72 SW8       30.12R WCI  16
TOLEDO EXPRESS CLEAR     23  20  88 SW8       30.11R WCI  14
TOLEDO METCALF CLEAR     24  20  84 SW7       30.12R WCI  16
LIMA           CLEAR     23  20  88 SW3       30.13R

$$
AND FOR LAKE MICHIGAN COASTAL AND OPEN LAKE BUOY OBSERVATIONS

STATION/POSITION TEMP    WIND        PRES    VSBY  WAVE
                 AIR SEA DIR/SP/G                  HT/PER
                 (F)     (DEG/KT/KT) (MB)    (MI)  (FT/S)
CALUMET HARBOR    25     170/ 11/ 14 1016.5F
MICHIGAN CITY     23     140/ 12/ 14   N/A
BURNS HARBOR      24     180/ 10/ 16 1017.9S
SAINT JOSEPH      24     160/  5/ 10 1017.9

$$
&&




USA.gov is the U.S. government's official web portal to all federal, state and local government web resources and services.